[[{"header":{"parameterUnit":"m.s-1","parameterCategory":1,"la1":30.2991,"la2":30.254,"lo1":-89.0895,"lo2":-89.0444,"dy":0.0017,"dx":0.0017,"nx":28,"ny":28,"refTime":"2025-09-16T03:00:00:Z","depth":0,"parameterNumber":2,"parameterNumberName":"U-component_of_WINDS"},"data":[0,0,0,0,0,0,0,0,0,0,0,0,0,0,0,0,0,0,0,0,0,0,0,0,0,0,0,0,0,0,0,0,0,0,0,0,0,0,0,0,0,0,0,0,0,0,0,0,0,0,0,0,0,0,0,0,0,0,-1.2637,-1.2637,0,-1.2653,-1.2653,-1.2653,-1.2627,-1.2626,-1.2625,-1.2624,-1.2643,-1.2644,-1.2645,0,0,0,0,0,0,0,0,0,0,0,0,0,-1.2587,-1.2588,-1.2637,-1.2637,-1.2637,-1.2653,-1.2653,-1.2653,-1.2627,-1.2626,-1.2625,-1.2624,-1.2642,-1.2644,-1.2645,0,0,0,0,0,0,0,0,0,0,0,0,0,-1.2607,-1.2588,-1.2637,-1.2626,-1.2625,-1.2653,-1.2653,-1.2654,-1.2627,-1.2626,-1.2624,-1.2623,-1.2642,-1.2644,-1.2646,-1.2686,0,0,-1.2652,-1.2653,0,0,0,0,0,0,0,0,-1.2606,-1.2608,-1.2627,-1.2627,-1.2626,-1.2636,-1.2643,-1.2664,-1.2627,-1.2626,-1.2624,-1.2622,-1.2642,-1.2644,-1.265,-1.2687,-1.2688,-1.2652,-1.2653,-1.2654,-1.2655,0,0,0,0,0,0,0,-1.2604,-1.2608,-1.2643,-1.2628,-1.2627,-1.2621,-1.2623,-1.2647,-1.2642,-1.2626,-1.2624,-1.2627,-1.2641,-1.2648,-1.265,-1.2688,-1.2652,-1.2654,-1.2655,-1.2656,-1.2762,-1.2763,0,0,0,0,0,0,-1.2604,-1.2607,-1.2643,-1.2644,-1.2612,-1.2623,-1.2625,-1.2634,-1.2641,-1.2641,-1.2628,-1.2625,-1.2645,-1.2648,-1.2651,-1.27,-1.2654,-1.2656,-1.2657,-1.276,-1.2762,-1.2764,0,0,0,0,0,0,-1.2603,-1.2607,-1.2642,-1.2625,-1.2629,-1.2626,-1.2637,-1.2635,-1.2642,-1.2642,-1.2642,-1.2635,-1.2644,-1.2648,-1.2678,-1.27,-1.2657,-1.2659,-1.2758,-1.2761,-1.2763,-1.2798,0,0,0,0,0,0,-1.2601,-1.2607,-1.2621,-1.2625,-1.263,-1.2668,-1.2638,-1.2637,-1.2645,-1.2642,-1.2649,-1.2649,-1.2643,-1.2675,-1.268,-1.2702,-1.266,-1.2756,-1.276,-1.2762,-1.2795,-1.2801,-1.2807,0,0,0,0,0,-1.26,-1.263,-1.2622,-1.2626,-1.2647,-1.2669,-1.2672,-1.2664,-1.2647,-1.2662,-1.2663,-1.2649,-1.2697,-1.2678,-1.2684,-1.2707,-1.2755,-1.2759,-1.2762,-1.2792,-1.28,-1.2806,0,0,0,0,0,0,-1.2628,-1.263,-1.2621,-1.2653,-1.2661,-1.2664,-1.2683,-1.2672,-1.2685,-1.2682,-1.2672,-1.2674,-1.2707,-1.271,-1.2689,-1.2748,-1.2723,-1.2728,-1.2744,-1.2752,-1.2758,-1.2756,-1.2662,0,0,0,0,0,-1.2639,-1.2655,-1.2656,-1.2685,-1.2689,-1.2686,-1.2695,-1.2688,-1.2696,-1.27,-1.2702,-1.2712,-1.2729,-1.2741,-1.2756,-1.2795,-1.2798,-1.2814,-1.282,-1.2825,-1.2829,-1.2853,-1.2861,-1.2776,-1.2776,-1.2776,0,0,-1.2659,-1.2663,-1.2673,-1.2691,-1.2696,-1.2715,-1.2688,-1.2709,-1.2723,-1.2703,-1.2732,-1.2734,-1.2744,-1.278,-1.2795,-1.2783,-1.2854,-1.283,-1.2834,-1.2835,-1.2857,-1.2865,-1.2873,-1.2778,-1.2778,-1.2777,0,0,-1.2707,-1.2711,-1.2736,-1.2742,-1.2751,-1.2748,-1.2755,-1.276,-1.2761,-1.279,-1.2776,-1.2794,-1.2823,-1.2832,-1.284,-1.2895,-1.2883,-1.29,-1.2931,-1.2954,-1.2961,-1.2967,-1.2988,-1.2995,-1.2905,-1.2905,-1.2905,0,-1.2732,-1.2759,-1.275,-1.2772,-1.2781,-1.2764,-1.2791,-1.2797,-1.2811,-1.2819,-1.2805,-1.2843,-1.2849,-1.2887,-1.2901,-1.2907,-1.2916,-1.2899,-1.296,-1.2966,-1.2972,-1.2992,-1.3,-1.2907,-1.2907,-1.2906,-1.2906,0,-1.279,-1.281,-1.2829,-1.2843,-1.2854,-1.2878,-1.2875,-1.2888,-1.2881,-1.2881,-1.2912,-1.2919,-1.2937,-1.2945,-1.2939,-1.2984,-1.2976,-1.2962,-1.2937,-1.2982,-1.3001,-1.3008,-1.291,-1.2909,-1.2908,-1.2908,0,0,-1.2855,-1.2865,-1.2872,-1.288,-1.2889,-1.2905,-1.293,-1.2947,-1.2959,-1.297,-1.2992,-1.3019,-1.3006,-1.3016,-1.3011,-1.3031,-1.3076,-1.3014,-1.3014,-1.3027,-1.3129,-1.314,-1.3148,-1.3069,-1.307,-1.3072,-1.3128,0,-1.2904,-1.2945,-1.2939,-1.298,-1.2999,-1.2984,-1.3006,-1.3016,-1.3017,-1.3035,-1.3037,-1.3057,-1.3038,-1.3044,-1.3063,-1.3067,-1.3097,-1.3062,-1.3091,-1.3092,-1.3089,-1.3158,-1.3169,-1.3222,-1.3135,-1.3136,-1.3137,0,-1.2965,-1.2979,-1.3021,-1.303,-1.3038,-1.3058,-1.3075,-1.3091,-1.3103,-1.3103,-1.3115,-1.3107,-1.3134,-1.311,-1.3148,-1.3125,-1.3137,-1.3141,-1.3143,-1.3145,-1.3117,-1.3163,-1.3238,-1.3247,-1.3149,-1.3148,-1.3147,0,-1.301,-1.3038,-1.3068,-1.3075,-1.3085,-1.31,-1.3106,-1.3116,-1.3128,-1.3143,-1.3151,-1.317,-1.318,-1.3196,-1.3195,-1.3176,-1.3235,-1.3209,-1.3237,-1.3237,-1.3249,-1.3249,-1.3328,-1.3256,-1.3256,-1.3256,-1.3256,0,-1.3065,-1.3092,-1.3089,-1.3107,-1.3138,-1.3132,-1.3163,-1.3167,-1.3177,-1.3197,-1.3186,-1.3206,-1.3202,-1.3223,-1.3222,-1.3256,-1.326,-1.3262,-1.3262,-1.3263,-1.3263,-1.3271,-1.3267,-1.3258,-1.3258,-1.3257,-1.3257,0,-1.3119,-1.3118,-1.315,-1.3158,-1.3161,-1.3183,-1.3191,-1.321,-1.3211,-1.3238,-1.3244,-1.3247,-1.327,-1.3271,-1.3298,-1.3297,-1.3339,-1.3334,-1.3335,-1.3334,-1.3362,-1.336,-1.3449,-1.3462,-1.3381,-1.3382,-1.3382,0,-1.3154,-1.3175,-1.3186,-1.3198,-1.3205,-1.3225,-1.3237,-1.3234,-1.3247,-1.3264,-1.3281,-1.3304,-1.3321,-1.3361,-1.3366,-1.3388,-1.3384,-1.3414,-1.3387,-1.3389,-1.3386,-1.3385,-1.3388,-1.3419,-1.342,-1.3421,-1.3422,0,-1.3217,-1.3216,-1.3234,-1.3252,-1.3267,-1.3281,-1.3295,-1.3306,-1.3304,-1.3321,-1.3345,-1.3359,-1.3387,-1.3411,-1.3432,-1.344,-1.3432,-1.343,-1.3438,-1.344,-1.344,-1.3442,-1.335,-1.3428,-1.3427,-1.3427,-1.3427,-1.3426,-1.3264,-1.3282,-1.3294,-1.3314,-1.3324,-1.3337,-1.3356,-1.336,-1.338,-1.3402,-1.3399,-1.3427,-1.3441,-1.3469,-1.3479,-1.3502,-1.3491,-1.3502,-1.3505,-1.3508,-1.3511,-1.3436,-1.3505,-1.3505,-1.3505,-1.3505,-1.3505,0,-1.3328,-1.3335,-1.3354,-1.3373,-1.339,-1.338,-1.3395,-1.341,-1.3434,-1.3448,-1.3466,-1.3495,-1.3519,-1.3527,-1.3551,-1.3568,-1.3565,-1.3574,-1.3573,-1.3576,-1.3519,-1.351,-1.3577,-1.3577,-1.3577,-1.3577,-1.3577,-1.3577,-1.3363,-1.3394,-1.3395,-1.3432,-1.3439,-1.3465,-1.3475,-1.3488,-1.3499,-1.3532,-1.3551,-1.3557,-1.3569,-1.3594,-1.3616,-1.3618,-1.3628,-1.3639,-1.364,-1.3587,-1.3579,-1.3572,-1.3564,-1.3641,-1.3641,-1.3695,-1.3696,-1.3696]},{"header":{"parameterUnit":"m.s-1","parameterCategory":1,"la1":30.2991,"la2":30.254,"lo1":-89.0895,"lo2":-89.0444,"dy":0.0017,"dx":0.0017,"nx":28,"ny":28,"refTime":"2025-09-16T03:00:00:Z","depth":0,"parameterNumber":3,"parameterNumberName":"V-component_of_WINDS"},"data":[0,0,0,0,0,0,0,0,0,0,0,0,0,0,0,0,0,0,0,0,0,0,0,0,0,0,0,0,0,0,0,0,0,0,0,0,0,0,0,0,0,0,0,0,0,0,0,0,0,0,0,0,0,0,0,0,0,0,3.3069,3.3069,0,3.3025,3.3024,3.3024,3.3057,3.3059,3.306,3.3062,3.3008,3.3005,3.3002,0,0,0,0,0,0,0,0,0,0,0,0,0,3.3175,3.3173,3.3069,3.3069,3.3068,3.3025,3.3024,3.3024,3.3057,3.3059,3.3061,3.3062,3.3009,3.3005,3.3002,0,0,0,0,0,0,0,0,0,0,0,0,0,3.3129,3.3172,3.3069,3.308,3.308,3.3025,3.3024,3.3024,3.3057,3.3059,3.3061,3.3063,3.301,3.3006,3.3001,3.2931,0,0,3.2989,3.2987,0,0,0,0,0,0,0,0,3.3132,3.3125,3.3079,3.3079,3.3079,3.3049,3.3042,3.2992,3.3056,3.3065,3.3062,3.3064,3.3019,3.3014,3.3001,3.2929,3.2926,3.2988,3.2986,3.2984,3.2983,0,0,0,0,0,0,0,3.3135,3.3127,3.3051,3.3078,3.3078,3.3084,3.308,3.3033,3.303,3.3065,3.3067,3.3062,3.302,3.3005,3.3,3.2926,3.2988,3.2985,3.2982,3.298,3.2792,3.279,0,0,0,0,0,0,3.3138,3.313,3.3053,3.305,3.3112,3.308,3.3076,3.3056,3.3031,3.3029,3.306,3.3063,3.3011,3.3005,3.2998,3.2913,3.2984,3.298,3.2978,3.2794,3.2791,3.2789,0,0,0,0,0,0,3.314,3.3131,3.3055,3.3091,3.3081,3.3076,3.3054,3.3054,3.304,3.3027,3.3026,3.3046,3.3012,3.3004,3.2948,3.2911,3.2978,3.2974,3.2797,3.2794,3.279,3.2742,0,0,0,0,0,0,3.3143,3.3132,3.3107,3.309,3.3079,3.3007,3.3052,3.3052,3.3033,3.3037,3.3014,3.3012,3.3013,3.2954,3.2944,3.2907,3.2971,3.2801,3.2796,3.2791,3.2747,3.2737,3.2729,0,0,0,0,0,3.3147,3.3093,3.3105,3.3096,3.3048,3.3005,3.2999,3.3004,3.303,3.3003,3.2996,3.3012,3.2918,3.2948,3.2937,3.2898,3.2803,3.2797,3.2792,3.2751,3.2739,3.2729,0,0,0,0,0,0,3.3102,3.3091,3.3104,3.3044,3.3026,3.3011,3.2977,3.2992,3.2963,3.2968,3.2974,3.2968,3.2909,3.2898,3.2932,3.2828,3.2864,3.2856,3.2837,3.2825,3.2817,3.2819,3.2967,0,0,0,0,0,3.3086,3.3054,3.3045,3.2993,3.2983,3.2982,3.2963,3.297,3.295,3.2941,3.2929,3.2907,3.2872,3.2849,3.2816,3.2746,3.274,3.2714,3.2705,3.2698,3.2689,3.265,3.2638,3.277,3.2771,3.2771,0,0,3.305,3.3041,3.302,3.2984,3.297,3.2935,3.2975,3.2936,3.2909,3.2934,3.2881,3.2871,3.2847,3.2783,3.2755,3.2772,3.2652,3.2691,3.2685,3.268,3.2643,3.263,3.2619,3.2767,3.2767,3.2768,0,0,3.2968,3.2958,3.2913,3.29,3.288,3.288,3.2869,3.2852,3.2848,3.2795,3.2813,3.278,3.2721,3.2702,3.2684,3.2596,3.2609,3.2586,3.2537,3.2499,3.2488,3.2479,3.2445,3.2433,3.2578,3.2578,3.2578,0,3.2925,3.2875,3.2887,3.2847,3.2829,3.2855,3.2807,3.2793,3.2762,3.2748,3.277,3.2695,3.268,3.2612,3.2591,3.2577,3.2562,3.2587,3.2489,3.248,3.2471,3.2439,3.2426,3.2575,3.2575,3.2576,3.2576,0,3.2823,3.2788,3.2753,3.2726,3.2705,3.2661,3.2664,3.2641,3.265,3.2647,3.2591,3.2575,3.2539,3.2524,3.2531,3.2457,3.2468,3.2489,3.2525,3.2456,3.2425,3.2413,3.2571,3.2572,3.2573,3.2573,0,0,3.2707,3.269,3.2676,3.2664,3.2645,3.2616,3.2573,3.2541,3.252,3.2498,3.246,3.241,3.243,3.241,3.2416,3.2383,3.2311,3.2408,3.2407,3.2388,3.2225,3.2207,3.2192,3.2321,3.2319,3.2317,3.2226,0,3.2622,3.2549,3.2559,3.2488,3.2455,3.2479,3.2441,3.2424,3.242,3.2389,3.2384,3.2348,3.2378,3.2366,3.2335,3.2326,3.2278,3.2334,3.2282,3.228,3.2285,3.2177,3.2158,3.2072,3.2214,3.2212,3.2211,0,3.2512,3.2489,3.2415,3.2401,3.2388,3.2354,3.2325,3.2296,3.2276,3.2276,3.2255,3.2266,3.222,3.226,3.2195,3.2233,3.2213,3.2206,3.2203,3.2195,3.2239,3.2163,3.2045,3.2031,3.2193,3.2194,3.2195,0,3.2432,3.2383,3.2332,3.2321,3.2304,3.2279,3.2271,3.2254,3.2234,3.2208,3.2194,3.2163,3.2144,3.2118,3.212,3.2149,3.2053,3.2093,3.2048,3.2048,3.2024,3.2025,3.1897,3.2016,3.2017,3.2017,3.2017,0,3.2333,3.2286,3.2296,3.2264,3.2212,3.2224,3.2171,3.2165,3.215,3.2116,3.2135,3.2102,3.2108,3.2074,3.2075,3.202,3.2012,3.2008,3.2008,3.2004,3.2004,3.1989,3.1993,3.2013,3.2014,3.2015,3.2015,0,3.2233,3.2239,3.2185,3.2174,3.2171,3.2132,3.2122,3.2091,3.209,3.2046,3.2037,3.2034,3.1995,3.1995,3.195,3.1951,3.1883,3.1891,3.189,3.189,3.1844,3.1847,3.17,3.168,3.1814,3.1813,3.1812,0,3.2169,3.2134,3.212,3.21,3.2091,3.2058,3.2038,3.2049,3.2027,3.2002,3.1973,3.1938,3.1909,3.1845,3.1837,3.1803,3.1808,3.1759,3.1803,3.18,3.1804,3.1805,3.18,3.1749,3.1748,3.1747,3.1746,0,3.2052,3.2057,3.203,3.2003,3.1979,3.1958,3.1938,3.192,3.1928,3.1902,3.1865,3.1843,3.1798,3.1761,3.1728,3.1716,3.173,3.1733,3.172,3.1714,3.1714,3.171,3.1863,3.1735,3.1736,3.1737,3.1737,3.1738,3.1966,3.1936,3.1922,3.189,3.1877,3.1859,3.1829,3.1826,3.1796,3.1762,3.177,3.1726,3.1707,3.1665,3.165,3.1615,3.1631,3.1613,3.1608,3.1603,3.1597,3.1722,3.1609,3.1609,3.161,3.161,3.161,0,3.1848,3.1841,3.1813,3.1786,3.176,3.1781,3.1761,3.1737,3.17,3.1682,3.1655,3.161,3.1574,3.1565,3.153,3.1503,3.1509,3.1493,3.1493,3.149,3.1585,3.1598,3.1489,3.1489,3.1489,3.1489,3.1489,3.1489,3.1784,3.1733,3.1737,3.1679,3.1672,3.1632,3.1618,3.16,3.1586,3.1537,3.1508,3.1504,3.1488,3.1452,3.142,3.1418,3.1402,3.1383,3.1383,3.1471,3.1483,3.1495,3.1507,3.138,3.138,3.1291,3.129,3.1289]}]]